Year,Month,Day,Hour,Minute,Value (Times are PST for temperature in C)
2011,09,06,00,00,14.70
2011,09,06,00,01,14.70
2011,09,06,00,02,14.60
2011,09,06,00,03,14.60
2011,09,06,00,04,14.60
2011,09,06,00,05,14.60
2011,09,06,00,06,14.60
2011,09,06,00,07,14.60
2011,09,06,00,08,14.60
2011,09,06,00,09,14.60
2011,09,06,00,10,14.60
2011,09,06,00,11,14.60
2011,09,06,00,12,14.60
2011,09,06,00,13,14.60
2011,09,06,00,14,14.60
2011,09,06,00,15,14.60
2011,09,06,00,16,14.60
2011,09,06,00,17,14.60
2011,09,06,00,18,14.60
2011,09,06,00,19,14.60
2011,09,06,00,20,14.60
2011,09,06,00,21,14.50
2011,09,06,00,22,14.50
2011,09,06,00,23,14.50
2011,09,06,00,24,14.50
2011,09,06,00,25,14.50
2011,09,06,00,26,14.50
2011,09,06,00,27,14.50
2011,09,06,00,28,14.50
2011,09,06,00,29,14.50
2011,09,06,00,30,14.50
2011,09,06,00,31,14.50
2011,09,06,00,32,14.50
2011,09,06,00,33,14.50
2011,09,06,00,34,14.50
2011,09,06,00,35,14.50
2011,09,06,00,36,14.50
2011,09,06,00,37,14.50
2011,09,06,00,38,14.50
2011,09,06,00,39,14.50
2011,09,06,00,40,14.40
2011,09,06,00,41,14.40
2011,09,06,00,42,14.40
2011,09,06,00,43,14.40
2011,09,06,00,44,14.40
2011,09,06,00,45,14.40
2011,09,06,00,46,14.40
2011,09,06,00,47,14.30
2011,09,06,00,48,14.30
2011,09,06,00,49,14.30
2011,09,06,00,50,14.30
2011,09,06,00,51,14.30
2011,09,06,00,52,14.20
2011,09,06,00,53,14.20
2011,09,06,00,54,14.20
2011,09,06,00,55,14.10
2011,09,06,00,56,14.10
2011,09,06,00,57,14.00
2011,09,06,00,58,13.90
2011,09,06,00,59,13.90
2011,09,06,01,00,13.80
2011,09,06,01,01,13.80
2011,09,06,01,02,13.70
2011,09,06,01,03,13.70
2011,09,06,01,04,13.70
2011,09,06,01,05,13.60
2011,09,06,01,06,13.60
2011,09,06,01,07,13.50
2011,09,06,01,08,13.50
2011,09,06,01,09,13.50
2011,09,06,01,10,13.40
2011,09,06,01,11,13.40
2011,09,06,01,12,13.30
2011,09,06,01,13,13.30
2011,09,06,01,14,13.30
2011,09,06,01,15,13.20
2011,09,06,01,16,13.20
2011,09,06,01,17,13.20
2011,09,06,01,18,13.10
2011,09,06,01,19,13.10
2011,09,06,01,20,13.10
2011,09,06,01,21,13.10
2011,09,06,01,22,13.10
2011,09,06,01,23,13.00
2011,09,06,01,24,13.00
2011,09,06,01,25,13.00
2011,09,06,01,26,12.90
2011,09,06,01,27,12.90
2011,09,06,01,28,12.90
2011,09,06,01,29,12.80
2011,09,06,01,30,12.80
2011,09,06,01,31,12.80
2011,09,06,01,32,12.80
2011,09,06,01,33,12.80
2011,09,06,01,34,12.80
2011,09,06,01,35,12.70
2011,09,06,01,36,12.70
2011,09,06,01,37,12.70
2011,09,06,01,38,12.70
2011,09,06,01,39,12.70
2011,09,06,01,40,12.60
2011,09,06,01,41,12.60
2011,09,06,01,42,12.60
2011,09,06,01,43,12.60
2011,09,06,01,44,12.50
2011,09,06,01,45,12.50
2011,09,06,01,46,12.50
2011,09,06,01,47,12.50
2011,09,06,01,48,12.40
2011,09,06,01,49,12.40
2011,09,06,01,50,12.40
2011,09,06,01,51,12.40
2011,09,06,01,52,12.40
2011,09,06,01,53,12.30
2011,09,06,01,54,12.30
2011,09,06,01,55,12.30
2011,09,06,01,56,12.30
2011,09,06,01,57,12.30
2011,09,06,01,58,12.30
2011,09,06,01,59,12.30
2011,09,06,02,00,12.20
2011,09,06,02,01,12.20
2011,09,06,02,02,12.20
2011,09,06,02,03,12.20
2011,09,06,02,04,12.20
2011,09,06,02,05,12.20
2011,09,06,02,06,12.10
2011,09,06,02,07,12.10
2011,09,06,02,08,12.10
2011,09,06,02,09,12.10
2011,09,06,02,10,12.10
2011,09,06,02,11,12.00
2011,09,06,02,12,12.00
2011,09,06,02,13,12.00
2011,09,06,02,14,12.00
2011,09,06,02,15,12.00
2011,09,06,02,16,11.90
2011,09,06,02,17,11.90
2011,09,06,02,18,11.90
2011,09,06,02,19,11.90
2011,09,06,02,20,11.90
2011,09,06,02,21,11.90
2011,09,06,02,22,11.90
2011,09,06,02,23,11.90
2011,09,06,02,24,11.80
2011,09,06,02,25,11.80
2011,09,06,02,26,11.80
2011,09,06,02,27,11.80
2011,09,06,02,28,11.80
2011,09,06,02,29,11.80
2011,09,06,02,30,11.80
2011,09,06,02,31,11.80
2011,09,06,02,32,11.80
2011,09,06,02,33,11.70
2011,09,06,02,34,11.70
2011,09,06,02,35,11.70
2011,09,06,02,36,11.70
2011,09,06,02,37,11.70
2011,09,06,02,38,11.70
2011,09,06,02,39,11.70
2011,09,06,02,40,11.60
2011,09,06,02,41,11.60
2011,09,06,02,42,11.60
2011,09,06,02,43,11.60
2011,09,06,02,44,11.60
2011,09,06,02,45,11.60
2011,09,06,02,46,11.60
2011,09,06,02,47,11.60
2011,09,06,02,48,11.60
2011,09,06,02,49,11.60
2011,09,06,02,50,11.60
2011,09,06,02,51,11.50
2011,09,06,02,52,11.50
2011,09,06,02,53,11.50
2011,09,06,02,54,11.50
2011,09,06,02,55,11.40
2011,09,06,02,56,11.40
2011,09,06,02,57,11.40
2011,09,06,02,58,11.40
2011,09,06,02,59,11.40
2011,09,06,03,00,11.40
2011,09,06,03,01,11.40
2011,09,06,03,02,11.30
2011,09,06,03,03,11.30
2011,09,06,03,04,11.30
2011,09,06,03,05,11.30
2011,09,06,03,06,11.30
2011,09,06,03,07,11.30
2011,09,06,03,08,11.30
2011,09,06,03,09,11.30
2011,09,06,03,10,11.30
2011,09,06,03,11,11.30
2011,09,06,03,12,11.20
2011,09,06,03,13,11.20
2011,09,06,03,14,11.20
2011,09,06,03,15,11.20
2011,09,06,03,16,11.20
2011,09,06,03,17,11.20
2011,09,06,03,18,11.20
2011,09,06,03,19,11.20
2011,09,06,03,20,11.10
2011,09,06,03,21,11.10
2011,09,06,03,22,11.10
2011,09,06,03,23,11.10
2011,09,06,03,24,11.10
2011,09,06,03,25,11.10
2011,09,06,03,26,11.10
2011,09,06,03,27,11.10
2011,09,06,03,28,11.10
2011,09,06,03,29,11.00
2011,09,06,03,30,11.00
2011,09,06,03,31,11.00
2011,09,06,03,32,11.00
2011,09,06,03,33,11.00
2011,09,06,03,34,11.00
2011,09,06,03,35,11.00
2011,09,06,03,36,10.90
2011,09,06,03,37,10.90
2011,09,06,03,38,10.90
2011,09,06,03,39,10.90
2011,09,06,03,40,10.90
2011,09,06,03,41,10.90
2011,09,06,03,42,10.90
2011,09,06,03,43,10.90
2011,09,06,03,44,10.90
2011,09,06,03,45,10.90
2011,09,06,03,46,10.90
2011,09,06,03,47,10.90
2011,09,06,03,48,10.90
2011,09,06,03,49,10.90
2011,09,06,03,50,10.90
2011,09,06,03,51,10.90
2011,09,06,03,52,10.80
2011,09,06,03,53,10.80
2011,09,06,03,54,10.80
2011,09,06,03,55,10.80
2011,09,06,03,56,10.80
2011,09,06,03,57,10.80
2011,09,06,03,58,10.80
2011,09,06,03,59,10.80
2011,09,06,04,00,10.80
2011,09,06,04,01,10.80
2011,09,06,04,02,10.80
2011,09,06,04,03,10.80
2011,09,06,04,04,10.80
2011,09,06,04,05,10.70
2011,09,06,04,06,10.70
2011,09,06,04,07,10.70
2011,09,06,04,08,10.70
2011,09,06,04,09,10.70
2011,09,06,04,10,10.70
2011,09,06,04,11,10.70
2011,09,06,04,12,10.70
2011,09,06,04,13,10.70
2011,09,06,04,14,10.70
2011,09,06,04,15,10.70
2011,09,06,04,16,10.60
2011,09,06,04,17,10.60
2011,09,06,04,18,10.60
2011,09,06,04,19,10.60
2011,09,06,04,20,10.60
2011,09,06,04,21,10.60
2011,09,06,04,22,10.60
2011,09,06,04,23,10.50
2011,09,06,04,24,10.50
2011,09,06,04,25,10.50
2011,09,06,04,26,10.50
2011,09,06,04,27,10.50
2011,09,06,04,28,10.50
2011,09,06,04,29,10.50
2011,09,06,04,30,10.50
2011,09,06,04,31,10.50
2011,09,06,04,32,10.40
2011,09,06,04,33,10.40
2011,09,06,04,34,10.40
2011,09,06,04,35,10.40
2011,09,06,04,36,10.40
2011,09,06,04,37,10.40
2011,09,06,04,38,10.40
2011,09,06,04,39,10.40
2011,09,06,04,40,10.40
2011,09,06,04,41,10.40
2011,09,06,04,42,10.40
2011,09,06,04,43,10.40
2011,09,06,04,44,10.40
2011,09,06,04,45,10.40
2011,09,06,04,46,10.40
2011,09,06,04,47,10.40
2011,09,06,04,48,10.40
2011,09,06,04,49,10.40
2011,09,06,04,50,10.40
2011,09,06,04,51,10.40
2011,09,06,04,52,10.40
2011,09,06,04,53,10.40
2011,09,06,04,54,10.40
2011,09,06,04,55,10.30
2011,09,06,04,56,10.30
2011,09,06,04,57,10.30
2011,09,06,04,58,10.30
2011,09,06,04,59,10.30
2011,09,06,05,00,10.30
2011,09,06,05,01,10.30
2011,09,06,05,02,10.30
2011,09,06,05,03,10.20
2011,09,06,05,04,10.20
2011,09,06,05,05,10.30
2011,09,06,05,06,10.30
2011,09,06,05,07,10.30
2011,09,06,05,08,10.30
2011,09,06,05,09,10.30
2011,09,06,05,10,10.30
2011,09,06,05,11,10.30
2011,09,06,05,12,10.30
2011,09,06,05,13,10.30
2011,09,06,05,14,10.30
2011,09,06,05,15,10.30
2011,09,06,05,16,10.30
2011,09,06,05,17,10.30
2011,09,06,05,18,10.30
2011,09,06,05,19,10.20
2011,09,06,05,20,10.20
2011,09,06,05,21,10.20
2011,09,06,05,22,10.20
2011,09,06,05,23,10.20
2011,09,06,05,24,10.20
2011,09,06,05,25,10.10
2011,09,06,05,26,10.10
2011,09,06,05,27,10.10
2011,09,06,05,28,10.10
2011,09,06,05,29,10.10
2011,09,06,05,30,10.10
2011,09,06,05,31,10.10
2011,09,06,05,32,10.10
2011,09,06,05,33,10.00
2011,09,06,05,34,10.00
2011,09,06,05,35,10.00
2011,09,06,05,36,10.00
2011,09,06,05,37,10.00
2011,09,06,05,38,10.00
2011,09,06,05,39,10.00
2011,09,06,05,40,10.00
2011,09,06,05,41,10.00
2011,09,06,05,42,10.00
2011,09,06,05,43,9.90
2011,09,06,05,44,9.90
2011,09,06,05,45,9.90
2011,09,06,05,46,9.90
2011,09,06,05,47,9.90
2011,09,06,05,48,9.90
2011,09,06,05,49,9.90
2011,09,06,05,50,9.90
2011,09,06,05,51,9.90
2011,09,06,05,52,9.90
2011,09,06,05,53,9.90
2011,09,06,05,54,9.90
2011,09,06,05,55,9.90
2011,09,06,05,56,9.80
2011,09,06,05,57,9.80
2011,09,06,05,58,9.80
2011,09,06,05,59,9.80
2011,09,06,06,00,9.80
2011,09,06,06,01,9.80
2011,09,06,06,02,9.80
2011,09,06,06,03,9.80
2011,09,06,06,04,9.80
2011,09,06,06,05,9.80
2011,09,06,06,06,9.80
2011,09,06,06,07,9.80
2011,09,06,06,08,9.80
2011,09,06,06,09,9.80
2011,09,06,06,10,9.80
2011,09,06,06,11,9.80
2011,09,06,06,12,9.80
2011,09,06,06,13,9.80
2011,09,06,06,14,9.80
2011,09,06,06,15,9.70
2011,09,06,06,16,9.70
2011,09,06,06,17,9.70
2011,09,06,06,18,9.70
2011,09,06,06,19,9.70
2011,09,06,06,20,9.70
2011,09,06,06,21,9.70
2011,09,06,06,22,9.70
2011,09,06,06,23,9.70
2011,09,06,06,24,9.70
2011,09,06,06,25,9.70
2011,09,06,06,26,9.70
2011,09,06,06,27,9.70
2011,09,06,06,28,9.70
2011,09,06,06,29,9.70
2011,09,06,06,30,9.70
2011,09,06,06,31,9.70
2011,09,06,06,32,9.70
2011,09,06,06,33,9.70
2011,09,06,06,34,9.80
2011,09,06,06,35,9.80
2011,09,06,06,36,9.80
2011,09,06,06,37,9.80
2011,09,06,06,38,9.90
2011,09,06,06,39,9.90
2011,09,06,06,40,9.90
2011,09,06,06,41,10.00
2011,09,06,06,42,10.00
2011,09,06,06,43,10.00
2011,09,06,06,44,10.00
2011,09,06,06,45,10.00
2011,09,06,06,46,10.10
2011,09,06,06,47,10.10
2011,09,06,06,48,10.10
2011,09,06,06,49,10.10
2011,09,06,06,50,10.10
2011,09,06,06,51,10.10
2011,09,06,06,52,10.10
2011,09,06,06,53,10.20
2011,09,06,06,54,10.20
2011,09,06,06,55,10.20
2011,09,06,06,56,10.20
2011,09,06,06,57,10.20
2011,09,06,06,58,10.20
2011,09,06,06,59,10.20
2011,09,06,07,00,10.20
2011,09,06,07,01,10.20
2011,09,06,07,02,10.20
2011,09,06,07,03,10.20
2011,09,06,07,04,10.20
2011,09,06,07,05,10.20
2011,09,06,07,06,10.20
2011,09,06,07,07,10.20
2011,09,06,07,08,10.20
2011,09,06,07,09,10.20
2011,09,06,07,10,10.20
2011,09,06,07,11,10.20
2011,09,06,07,12,10.20
2011,09,06,07,13,10.20
2011,09,06,07,14,10.20
2011,09,06,07,15,10.20
2011,09,06,07,16,10.20
2011,09,06,07,17,10.20
2011,09,06,07,18,10.20
2011,09,06,07,19,10.20
2011,09,06,07,20,10.30
2011,09,06,07,21,10.30
2011,09,06,07,22,10.30
2011,09,06,07,23,10.30
2011,09,06,07,24,10.30
2011,09,06,07,25,10.20
2011,09,06,07,26,10.20
2011,09,06,07,27,10.20
2011,09,06,07,28,10.20
2011,09,06,07,29,10.20
2011,09,06,07,30,10.20
2011,09,06,07,31,10.20
2011,09,06,07,32,10.20
2011,09,06,07,33,10.20
2011,09,06,07,34,10.20
2011,09,06,07,35,10.20
2011,09,06,07,36,10.20
2011,09,06,07,37,10.20
2011,09,06,07,38,10.20
2011,09,06,07,39,10.20
2011,09,06,07,40,10.20
2011,09,06,07,41,10.20
2011,09,06,07,42,10.30
2011,09,06,07,43,10.30
2011,09,06,07,44,10.30
2011,09,06,07,45,10.30
2011,09,06,07,46,10.30
2011,09,06,07,47,10.30
2011,09,06,07,48,10.30
2011,09,06,07,49,10.30
2011,09,06,07,50,10.40
2011,09,06,07,51,10.40
2011,09,06,07,52,10.40
2011,09,06,07,53,10.40
2011,09,06,07,54,10.50
2011,09,06,07,55,10.50
2011,09,06,07,56,10.50
2011,09,06,07,57,10.60
2011,09,06,07,58,10.60
2011,09,06,07,59,10.60
2011,09,06,08,00,10.60
2011,09,06,08,01,10.60
2011,09,06,08,02,10.70
2011,09,06,08,03,10.70
2011,09,06,08,04,10.70
2011,09,06,08,05,10.70
2011,09,06,08,06,10.80
2011,09,06,08,07,10.80
2011,09,06,08,08,10.80
2011,09,06,08,09,10.90
2011,09,06,08,10,10.90
2011,09,06,08,11,10.90
2011,09,06,08,12,10.90
2011,09,06,08,13,11.00
2011,09,06,08,14,11.00
2011,09,06,08,15,11.10
2011,09,06,08,16,11.10
2011,09,06,08,17,11.10
2011,09,06,08,18,11.20
2011,09,06,08,19,11.20
2011,09,06,08,20,11.20
2011,09,06,08,21,11.30
2011,09,06,08,22,11.30
2011,09,06,08,23,11.30
2011,09,06,08,24,11.40
2011,09,06,08,25,11.40
2011,09,06,08,26,11.50
2011,09,06,08,27,11.60
2011,09,06,08,28,11.70
2011,09,06,08,29,11.70
2011,09,06,08,30,11.80
2011,09,06,08,31,12.00
2011,09,06,08,32,12.10
2011,09,06,08,33,12.20
2011,09,06,08,34,12.30
2011,09,06,08,35,12.30
2011,09,06,08,36,12.40
2011,09,06,08,37,12.50
2011,09,06,08,38,12.60
2011,09,06,08,39,12.60
2011,09,06,08,40,12.70
2011,09,06,08,41,12.70
2011,09,06,08,42,12.70
2011,09,06,08,43,12.80
2011,09,06,08,44,12.80
2011,09,06,08,45,12.90
2011,09,06,08,46,12.90
2011,09,06,08,47,13.00
2011,09,06,08,48,13.00
2011,09,06,08,49,13.10
2011,09,06,08,50,13.10
2011,09,06,08,51,13.10
2011,09,06,08,52,13.20
2011,09,06,08,53,13.20
2011,09,06,08,54,13.30
2011,09,06,08,55,13.30
2011,09,06,08,56,13.40
2011,09,06,08,57,13.50
2011,09,06,08,58,13.50
2011,09,06,08,59,13.60
2011,09,06,09,00,13.70
2011,09,06,09,01,13.80
2011,09,06,09,02,13.80
2011,09,06,09,03,13.90
2011,09,06,09,04,14.00
2011,09,06,09,05,14.00
2011,09,06,09,06,14.10
2011,09,06,09,07,14.20
2011,09,06,09,08,14.30
2011,09,06,09,09,14.50
2011,09,06,09,10,14.60
2011,09,06,09,11,14.70
2011,09,06,09,12,14.80
2011,09,06,09,13,14.90
2011,09,06,09,14,15.00
2011,09,06,09,15,15.00
2011,09,06,09,16,15.10
2011,09,06,09,17,15.20
2011,09,06,09,18,15.20
2011,09,06,09,19,15.30
2011,09,06,09,20,15.40
2011,09,06,09,21,15.40
2011,09,06,09,22,15.50
2011,09,06,09,23,15.60
2011,09,06,09,24,15.70
2011,09,06,09,25,15.70
2011,09,06,09,26,15.80
2011,09,06,09,27,15.80
2011,09,06,09,28,15.80
2011,09,06,09,29,15.90
2011,09,06,09,30,16.00
2011,09,06,09,31,16.00
2011,09,06,09,32,16.10
2011,09,06,09,33,16.20
2011,09,06,09,34,16.20
2011,09,06,09,35,16.20
2011,09,06,09,36,16.30
2011,09,06,09,37,16.30
2011,09,06,09,38,16.30
2011,09,06,09,39,16.40
2011,09,06,09,40,16.40
2011,09,06,09,41,16.50
2011,09,06,09,42,16.60
2011,09,06,09,43,16.60
2011,09,06,09,44,16.60
2011,09,06,09,45,16.70
2011,09,06,09,46,16.70
2011,09,06,09,47,16.70
2011,09,06,09,48,16.80
2011,09,06,09,49,16.80
2011,09,06,09,50,16.90
2011,09,06,09,51,16.90
2011,09,06,09,52,16.90
2011,09,06,09,53,17.00
2011,09,06,09,54,17.10
2011,09,06,09,55,17.10
2011,09,06,09,56,17.10
2011,09,06,09,57,17.20
2011,09,06,09,58,17.20
2011,09,06,09,59,17.20
2011,09,06,10,00,17.30
2011,09,06,10,01,17.30
2011,09,06,10,02,17.40
2011,09,06,10,03,17.40
2011,09,06,10,04,17.40
2011,09,06,10,05,17.50
2011,09,06,10,06,17.50
2011,09,06,10,07,17.50
2011,09,06,10,08,17.60
2011,09,06,10,09,17.60
2011,09,06,10,10,17.70
2011,09,06,10,11,17.70
2011,09,06,10,12,17.70
2011,09,06,10,13,17.80
2011,09,06,10,14,17.80
2011,09,06,10,15,17.90
2011,09,06,10,16,17.90
2011,09,06,10,17,18.00
2011,09,06,10,18,18.00
2011,09,06,10,19,18.10
2011,09,06,10,20,18.10
2011,09,06,10,21,18.20
2011,09,06,10,22,18.20
2011,09,06,10,23,18.30
2011,09,06,10,24,18.30
2011,09,06,10,25,18.30
2011,09,06,10,26,18.40
2011,09,06,10,27,18.40
2011,09,06,10,28,18.40
2011,09,06,10,29,18.50
2011,09,06,10,30,18.50
2011,09,06,10,31,18.60
2011,09,06,10,32,18.60
2011,09,06,10,33,18.70
2011,09,06,10,34,18.80
2011,09,06,10,35,18.80
2011,09,06,10,36,18.90
2011,09,06,10,37,19.00
2011,09,06,10,38,19.10
2011,09,06,10,39,19.10
2011,09,06,10,40,19.20
2011,09,06,10,41,19.20
2011,09,06,10,42,19.30
2011,09,06,10,43,19.30
2011,09,06,10,44,19.30
2011,09,06,10,45,19.40
2011,09,06,10,46,19.30
2011,09,06,10,47,19.30
2011,09,06,10,48,19.30
2011,09,06,10,49,19.40
2011,09,06,10,50,19.40
2011,09,06,10,51,19.40
2011,09,06,10,52,19.30
2011,09,06,10,53,19.30
2011,09,06,10,54,19.30
2011,09,06,10,55,19.30
2011,09,06,10,56,19.30
2011,09,06,10,57,19.30
2011,09,06,10,58,19.30
2011,09,06,10,59,19.30
2011,09,06,11,00,19.40
2011,09,06,11,01,19.40
2011,09,06,11,02,19.40
2011,09,06,11,03,19.40
2011,09,06,11,04,19.40
2011,09,06,11,05,19.50
2011,09,06,11,06,19.50
2011,09,06,11,07,19.50
2011,09,06,11,08,19.50
2011,09,06,11,09,19.50
2011,09,06,11,10,19.50
2011,09,06,11,11,19.50
2011,09,06,11,12,19.60
2011,09,06,11,13,19.60
2011,09,06,11,14,19.70
2011,09,06,11,15,19.70
2011,09,06,11,16,19.70
2011,09,06,11,17,19.70
2011,09,06,11,18,19.80
2011,09,06,11,19,19.80
2011,09,06,11,20,19.80
2011,09,06,11,21,19.80
2011,09,06,11,22,19.90
2011,09,06,11,23,19.90
2011,09,06,11,24,20.00
2011,09,06,11,25,19.90
2011,09,06,11,26,19.90
2011,09,06,11,27,19.90
2011,09,06,11,28,19.90
2011,09,06,11,29,19.90
2011,09,06,11,30,19.90
2011,09,06,11,31,20.00
2011,09,06,11,32,20.00
2011,09,06,11,33,20.00
2011,09,06,11,34,19.90
2011,09,06,11,35,19.90
2011,09,06,11,36,19.90
2011,09,06,11,37,19.90
2011,09,06,11,38,19.90
2011,09,06,11,39,19.90
2011,09,06,11,40,19.90
2011,09,06,11,41,19.90
2011,09,06,11,42,20.00
2011,09,06,11,43,20.00
2011,09,06,11,44,20.10
2011,09,06,11,45,20.10
2011,09,06,11,46,20.10
2011,09,06,11,47,20.10
2011,09,06,11,48,20.10
2011,09,06,11,49,20.00
2011,09,06,11,50,19.90
2011,09,06,11,51,19.80
2011,09,06,11,52,19.80
2011,09,06,11,53,19.80
2011,09,06,11,54,19.80
2011,09,06,11,55,19.70
2011,09,06,11,56,19.80
2011,09,06,11,57,19.80
2011,09,06,11,58,19.80
2011,09,06,11,59,19.80
2011,09,06,12,00,19.80
2011,09,06,12,01,19.80
2011,09,06,12,02,19.80
2011,09,06,12,03,19.80
2011,09,06,12,04,19.80
2011,09,06,12,05,19.80
2011,09,06,12,06,19.80
2011,09,06,12,07,19.90
2011,09,06,12,08,20.00
2011,09,06,12,09,20.00
2011,09,06,12,10,20.10
2011,09,06,12,11,20.10
2011,09,06,12,12,20.10
2011,09,06,12,13,20.10
2011,09,06,12,14,20.10
2011,09,06,12,15,20.10
2011,09,06,12,16,20.10
2011,09,06,12,17,20.10
2011,09,06,12,18,20.10
2011,09,06,12,19,20.20
2011,09,06,12,20,20.30
2011,09,06,12,21,20.30
2011,09,06,12,22,20.30
2011,09,06,12,23,20.30
2011,09,06,12,24,20.30
2011,09,06,12,25,20.30
2011,09,06,12,26,20.30
2011,09,06,12,27,20.30
2011,09,06,12,28,20.40
2011,09,06,12,29,20.40
2011,09,06,12,30,20.40
2011,09,06,12,31,20.50
2011,09,06,12,32,20.50
2011,09,06,12,33,20.50
2011,09,06,12,34,20.60
2011,09,06,12,35,20.60
2011,09,06,12,36,20.60
2011,09,06,12,37,20.70
2011,09,06,12,38,20.70
2011,09,06,12,39,20.80
2011,09,06,12,40,20.90
2011,09,06,12,41,20.90
2011,09,06,12,42,21.00
2011,09,06,12,43,21.00
2011,09,06,12,44,21.10
2011,09,06,12,45,21.10
2011,09,06,12,46,21.10
2011,09,06,12,47,21.20
2011,09,06,12,48,21.20
2011,09,06,12,49,21.30
2011,09,06,12,50,21.40
2011,09,06,12,51,21.50
2011,09,06,12,52,21.60
2011,09,06,12,53,21.60
2011,09,06,12,54,21.70
2011,09,06,12,55,21.70
2011,09,06,12,56,21.80
2011,09,06,12,57,21.80
2011,09,06,12,58,21.80
2011,09,06,12,59,21.80
2011,09,06,13,00,21.80
2011,09,06,13,01,21.90
2011,09,06,13,02,21.90
2011,09,06,13,03,21.90
2011,09,06,13,04,21.90
2011,09,06,13,05,21.90
2011,09,06,13,06,21.90
2011,09,06,13,07,21.90
2011,09,06,13,08,22.00
2011,09,06,13,09,22.00
2011,09,06,13,10,22.00
2011,09,06,13,11,21.90
2011,09,06,13,12,22.00
2011,09,06,13,13,22.00
2011,09,06,13,14,22.10
2011,09,06,13,15,22.10
2011,09,06,13,16,22.20
2011,09,06,13,17,22.20
2011,09,06,13,18,22.10
2011,09,06,13,19,22.10
2011,09,06,13,20,21.90
2011,09,06,13,21,21.90
2011,09,06,13,22,21.80
2011,09,06,13,23,21.70
2011,09,06,13,24,21.60
2011,09,06,13,25,21.50
2011,09,06,13,26,21.40
2011,09,06,13,27,21.30
2011,09,06,13,28,21.30
2011,09,06,13,29,21.20
2011,09,06,13,30,21.20
2011,09,06,13,31,21.10
2011,09,06,13,32,21.10
2011,09,06,13,33,21.10
2011,09,06,13,34,21.10
2011,09,06,13,35,21.10
2011,09,06,13,36,21.10
2011,09,06,13,37,21.10
2011,09,06,13,38,21.20
2011,09,06,13,39,21.20
2011,09,06,13,40,21.20
2011,09,06,13,41,21.30
2011,09,06,13,42,21.40
2011,09,06,13,43,21.50
2011,09,06,13,44,21.50
2011,09,06,13,45,21.60
2011,09,06,13,46,21.70
2011,09,06,13,47,21.70
2011,09,06,13,48,21.70
2011,09,06,13,49,21.80
2011,09,06,13,50,21.80
2011,09,06,13,51,21.80
2011,09,06,13,52,21.90
2011,09,06,13,53,21.90
2011,09,06,13,54,21.90
2011,09,06,13,55,21.90
2011,09,06,13,56,21.90
2011,09,06,13,57,21.90
2011,09,06,13,58,21.90
2011,09,06,13,59,22.00
2011,09,06,14,00,22.00
2011,09,06,14,01,22.00
2011,09,06,14,02,22.10
2011,09,06,14,03,22.10
2011,09,06,14,04,22.20
2011,09,06,14,05,22.20
2011,09,06,14,06,22.30
2011,09,06,14,07,22.30
2011,09,06,14,08,22.40
2011,09,06,14,09,22.50
2011,09,06,14,10,22.60
2011,09,06,14,11,22.60
2011,09,06,14,12,22.70
2011,09,06,14,13,22.70
2011,09,06,14,14,22.70
2011,09,06,14,15,22.80
2011,09,06,14,16,22.80
2011,09,06,14,17,22.80
2011,09,06,14,18,22.80
2011,09,06,14,19,22.90
2011,09,06,14,20,22.90
2011,09,06,14,21,22.90
2011,09,06,14,22,22.90
2011,09,06,14,23,22.90
2011,09,06,14,24,22.90
2011,09,06,14,25,23.00
2011,09,06,14,26,23.00
2011,09,06,14,27,23.10
2011,09,06,14,28,23.10
2011,09,06,14,29,23.10
2011,09,06,14,30,23.10
2011,09,06,14,31,23.10
2011,09,06,14,32,23.10
2011,09,06,14,33,23.10
2011,09,06,14,34,23.10
2011,09,06,14,35,23.10
2011,09,06,14,36,23.10
2011,09,06,14,37,23.10
2011,09,06,14,38,23.10
2011,09,06,14,39,23.10
2011,09,06,14,40,23.10
2011,09,06,14,41,23.10
2011,09,06,14,42,23.10
2011,09,06,14,43,23.20
2011,09,06,14,44,23.20
2011,09,06,14,45,23.30
2011,09,06,14,46,23.30
2011,09,06,14,47,23.30
2011,09,06,14,48,23.30
2011,09,06,14,49,23.40
2011,09,06,14,50,23.40
2011,09,06,14,51,23.50
2011,09,06,14,52,23.60
2011,09,06,14,53,23.60
2011,09,06,14,54,23.60
2011,09,06,14,55,23.70
2011,09,06,14,56,23.70
2011,09,06,14,57,23.70
2011,09,06,14,58,23.70
2011,09,06,14,59,23.70
2011,09,06,15,00,23.80
2011,09,06,15,01,23.80
2011,09,06,15,02,23.80
2011,09,06,15,03,23.80
2011,09,06,15,04,23.80
2011,09,06,15,05,23.90
2011,09,06,15,06,23.90
2011,09,06,15,07,23.90
2011,09,06,15,08,23.90
2011,09,06,15,09,23.90
2011,09,06,15,10,23.90
2011,09,06,15,11,23.90
2011,09,06,15,12,24.00
2011,09,06,15,13,24.00
2011,09,06,15,14,24.10
2011,09,06,15,15,24.10
2011,09,06,15,16,24.10
2011,09,06,15,17,24.20
2011,09,06,15,18,24.20
2011,09,06,15,19,24.30
2011,09,06,15,20,24.30
2011,09,06,15,21,24.30
2011,09,06,15,22,24.30
2011,09,06,15,23,24.40
2011,09,06,15,24,24.40
2011,09,06,15,25,24.40
2011,09,06,15,26,24.50
2011,09,06,15,27,24.50
2011,09,06,15,28,24.50
2011,09,06,15,29,24.50
2011,09,06,15,30,24.50
2011,09,06,15,31,24.60
2011,09,06,15,32,24.60
2011,09,06,15,33,24.60
2011,09,06,15,34,24.60
2011,09,06,15,35,24.60
2011,09,06,15,36,24.60
2011,09,06,15,37,24.60
2011,09,06,15,38,24.60
2011,09,06,15,39,24.60
2011,09,06,15,40,24.50
2011,09,06,15,41,24.50
2011,09,06,15,42,24.50
2011,09,06,15,43,24.50
2011,09,06,15,44,24.60
2011,09,06,15,45,24.60
2011,09,06,15,46,24.60
2011,09,06,15,47,24.50
2011,09,06,15,48,24.60
2011,09,06,15,49,24.60
2011,09,06,15,50,24.60
2011,09,06,15,51,24.60
2011,09,06,15,52,24.60
2011,09,06,15,53,24.60
2011,09,06,15,54,24.60
2011,09,06,15,55,24.70
2011,09,06,15,56,24.70
2011,09,06,15,57,24.70
2011,09,06,15,58,24.70
2011,09,06,15,59,24.70
2011,09,06,16,00,24.70
2011,09,06,16,01,24.70
2011,09,06,16,02,24.70
2011,09,06,16,03,24.70
2011,09,06,16,04,24.70
2011,09,06,16,05,24.70
2011,09,06,16,06,24.70
2011,09,06,16,07,24.70
2011,09,06,16,08,24.70
2011,09,06,16,09,24.70
2011,09,06,16,10,24.70
2011,09,06,16,11,24.70
2011,09,06,16,12,24.70
2011,09,06,16,13,24.70
2011,09,06,16,14,24.70
2011,09,06,16,15,24.70
2011,09,06,16,16,24.80
2011,09,06,16,17,24.80
2011,09,06,16,18,24.80
2011,09,06,16,19,24.90
2011,09,06,16,20,24.90
2011,09,06,16,21,24.90
2011,09,06,16,22,24.90
2011,09,06,16,23,24.90
2011,09,06,16,24,24.90
2011,09,06,16,25,24.90
2011,09,06,16,26,24.90
2011,09,06,16,27,24.90
2011,09,06,16,28,24.90
2011,09,06,16,29,24.90
2011,09,06,16,30,24.90
2011,09,06,16,31,24.90
2011,09,06,16,32,24.90
2011,09,06,16,33,24.90
2011,09,06,16,34,24.90
2011,09,06,16,35,24.80
2011,09,06,16,36,24.80
2011,09,06,16,37,24.80
2011,09,06,16,38,24.80
2011,09,06,16,39,24.80
2011,09,06,16,40,24.80
2011,09,06,16,41,24.70
2011,09,06,16,42,24.70
2011,09,06,16,43,24.70
2011,09,06,16,44,24.70
2011,09,06,16,45,24.70
2011,09,06,16,46,24.70
2011,09,06,16,47,24.70
2011,09,06,16,48,24.70
2011,09,06,16,49,24.70
2011,09,06,16,50,24.60
2011,09,06,16,51,24.60
2011,09,06,16,52,24.60
2011,09,06,16,53,24.50
2011,09,06,16,54,24.50
2011,09,06,16,55,24.40
2011,09,06,16,56,24.40
2011,09,06,16,57,24.40
2011,09,06,16,58,24.40
2011,09,06,16,59,24.40
2011,09,06,17,00,24.40
2011,09,06,17,01,24.40
2011,09,06,17,02,24.40
2011,09,06,17,03,24.40
2011,09,06,17,04,24.40
2011,09,06,17,05,24.40
2011,09,06,17,06,24.30
2011,09,06,17,07,24.30
2011,09,06,17,08,24.20
2011,09,06,17,09,24.20
2011,09,06,17,10,24.10
2011,09,06,17,11,24.10
2011,09,06,17,12,24.00
2011,09,06,17,13,23.90
2011,09,06,17,14,23.90
2011,09,06,17,15,23.90
2011,09,06,17,16,23.90
2011,09,06,17,17,23.80
2011,09,06,17,18,23.80
2011,09,06,17,19,23.80
2011,09,06,17,20,23.80
2011,09,06,17,21,23.80